Location: Fontevrault
(47.1823°N, 0.0493°E)
Time: 03:07:00
(UTC+00:00)

Meteor 1-21 Rocket - Pass Details

Date: 26 October 2021
Orbit: 834 x 907 km, 81.2° (Epoch: 07 December)

Event Time Altitude Azimuth Distance (km) Brightness Sun altitude
Rises 18:57:43 0° 332° (NNW) 3,526 7.9 -21.8°
Reaches altitude 10° 19:01:28 10° 308° (NW) 2,589 7.5 -22.5°
Maximum altitude 19:04:16 14° 280° (W) 2,325 7.5 -22.9°
Drops below altitude 10° 19:07:04 10° 251° (WSW) 2,588 7.6 -23.4°
Sets 19:10:50 0° 227° (SW) 3,524 8.0 -24.0°
